[[{"header":{"parameterUnit":"m.s-1","parameterCategory":1,"la1":30.2991,"la2":30.254,"lo1":-89.0895,"lo2":-89.0444,"dy":0.0017,"dx":0.0017,"nx":28,"ny":28,"refTime":"2026-01-07T09:00:00:Z","depth":0,"parameterNumber":2,"parameterNumberName":"U-component_of_WINDS"},"data":[0,0,0,0,0,0,0,0,0,0,0,0,0,0,0,0,0,0,0,0,0,0,0,0,0,0,0,0,0,0,0,0,0,0,0,0,0,0,0,0,0,0,0,0,0,0,0,0,0,0,0,0,0,0,0,0,0,0,-3.7403,-3.7404,0,-3.7513,-3.7514,-3.7515,-3.7525,-3.7524,-3.7523,-3.7522,-3.7632,-3.7636,-3.764,0,0,0,0,0,0,0,0,0,0,0,0,0,-3.72,-3.7204,-3.7403,-3.7404,-3.7405,-3.7512,-3.7514,-3.7515,-3.7525,-3.7524,-3.7522,-3.7521,-3.7631,-3.7635,-3.764,0,0,0,0,0,0,0,0,0,0,0,0,0,-3.7297,-3.7205,-3.7402,-3.7423,-3.7426,-3.7512,-3.7514,-3.7516,-3.7525,-3.7524,-3.7522,-3.752,-3.7629,-3.7635,-3.7641,-3.7713,0,0,-3.7659,-3.7662,0,0,0,0,0,0,0,0,-3.7291,-3.7304,-3.7419,-3.7422,-3.7425,-3.7503,-3.7483,-3.7582,-3.7526,-3.7488,-3.7522,-3.752,-3.759,-3.76,-3.7624,-3.7718,-3.7723,-3.766,-3.7664,-3.7666,-3.7668,0,0,0,0,0,0,0,-3.7285,-3.7299,-3.7446,-3.742,-3.7424,-3.7427,-3.7439,-3.7502,-3.7547,-3.7491,-3.7492,-3.7505,-3.7592,-3.7618,-3.7627,-3.7725,-3.766,-3.7665,-3.7669,-3.7671,-3.7884,-3.7886,0,0,0,0,0,0,-3.7274,-3.7294,-3.7443,-3.7449,-3.7353,-3.7432,-3.7445,-3.748,-3.7547,-3.7555,-3.7506,-3.7505,-3.7609,-3.762,-3.7631,-3.7719,-3.7666,-3.7672,-3.7675,-3.7882,-3.7884,-3.7887,0,0,0,0,0,0,-3.727,-3.7287,-3.7438,-3.7372,-3.7391,-3.7437,-3.7476,-3.7483,-3.7509,-3.7558,-3.7566,-3.7525,-3.7608,-3.7622,-3.7693,-3.7723,-3.7674,-3.768,-3.788,-3.7883,-3.7886,-3.7897,0,0,0,0,0,0,-3.7264,-3.7286,-3.7314,-3.7373,-3.7395,-3.7499,-3.7478,-3.7487,-3.752,-3.7519,-3.7578,-3.7586,-3.7607,-3.7684,-3.7699,-3.773,-3.7685,-3.7877,-3.7881,-3.7885,-3.7894,-3.79,-3.7905,0,0,0,0,0,-3.7257,-3.7312,-3.7315,-3.7333,-3.7431,-3.75,-3.7513,-3.7537,-3.7522,-3.7551,-3.7583,-3.7584,-3.7718,-3.7691,-3.7708,-3.7742,-3.7875,-3.788,-3.7884,-3.7891,-3.7899,-3.7905,0,0,0,0,0,0,-3.7254,-3.732,-3.7324,-3.74,-3.7445,-3.7502,-3.7538,-3.7544,-3.7594,-3.7591,-3.7619,-3.7632,-3.7701,-3.7729,-3.7698,-3.7815,-3.7795,-3.7803,-3.7794,-3.7802,-3.7807,-3.7798,-3.769,0,0,0,0,0,-3.7263,-3.7314,-3.7369,-3.743,-3.7453,-3.7492,-3.7523,-3.7538,-3.7585,-3.7604,-3.7641,-3.7686,-3.7738,-3.7772,-3.7823,-3.7899,-3.7911,-3.7931,-3.7936,-3.7941,-3.7947,-3.7989,-3.7998,-3.7902,-3.7902,-3.7902,0,0,-3.728,-3.7322,-3.7353,-3.7431,-3.7467,-3.752,-3.7507,-3.7563,-3.7602,-3.7612,-3.7681,-3.771,-3.7762,-3.7836,-3.787,-3.7861,-3.7976,-3.7946,-3.7949,-3.7953,-3.7994,-3.8003,-3.8011,-3.7905,-3.7904,-3.7904,0,0,-3.7338,-3.7376,-3.7432,-3.7469,-3.7524,-3.755,-3.7564,-3.7621,-3.7641,-3.7711,-3.7719,-3.7766,-3.7856,-3.7893,-3.7923,-3.7998,-3.8001,-3.8014,-3.8042,-3.8082,-3.809,-3.8097,-3.8122,-3.8131,-3.802,-3.802,-3.802,0,-3.7353,-3.7432,-3.7459,-3.7515,-3.7549,-3.7562,-3.7618,-3.7653,-3.7722,-3.7745,-3.7735,-3.7848,-3.7884,-3.7966,-3.7985,-3.8009,-3.8025,-3.8006,-3.8087,-3.8094,-3.8101,-3.8125,-3.8135,-3.8021,-3.8021,-3.8021,-3.8021,0,-3.7447,-3.7502,-3.754,-3.7607,-3.7646,-3.7702,-3.7737,-3.7773,-3.7785,-3.7812,-3.7884,-3.7928,-3.7988,-3.8009,-3.8022,-3.8094,-3.8086,-3.8081,-3.8061,-3.8111,-3.8134,-3.8144,-3.8023,-3.8022,-3.8022,-3.8022,0,0,-3.7504,-3.7587,-3.76,-3.7631,-3.7695,-3.7738,-3.7795,-3.7854,-3.7884,-3.7932,-3.798,-3.8056,-3.8052,-3.8087,-3.8104,-3.814,-3.8195,-3.8131,-3.8132,-3.814,-3.8277,-3.8279,-3.829,-3.8199,-3.8201,-3.8203,-3.8272,0,-3.7568,-3.767,-3.7697,-3.7782,-3.7833,-3.7848,-3.7897,-3.7941,-3.7969,-3.8016,-3.8046,-3.81,-3.8091,-3.8112,-3.8148,-3.8181,-3.8223,-3.8177,-3.8242,-3.8244,-3.8227,-3.8302,-3.8304,-3.8368,-3.8282,-3.8283,-3.8284,0,-3.7656,-3.7707,-3.7798,-3.7856,-3.7878,-3.7922,-3.7979,-3.8025,-3.8075,-3.8093,-3.8132,-3.8146,-3.8206,-3.8184,-3.8266,-3.8234,-3.8263,-3.8283,-3.8286,-3.8292,-3.8266,-3.8308,-3.8389,-3.8398,-3.8299,-3.8298,-3.8297,0,-3.7687,-3.7779,-3.7845,-3.7871,-3.794,-3.7971,-3.8001,-3.805,-3.8084,-3.8135,-3.8157,-3.8214,-3.8244,-3.8287,-3.8316,-3.8298,-3.8396,-3.8376,-3.8411,-3.841,-3.8429,-3.8427,-3.8513,-3.845,-3.845,-3.845,-3.845,0,-3.7755,-3.781,-3.786,-3.79,-3.7962,-3.7993,-3.8054,-3.8084,-3.8128,-3.8175,-3.8192,-3.8235,-3.8271,-3.8319,-3.8343,-3.8407,-3.8421,-3.8436,-3.8441,-3.8433,-3.8431,-3.8451,-3.8447,-3.8453,-3.8452,-3.8452,-3.8451,0,-3.7799,-3.7835,-3.7908,-3.7968,-3.7985,-3.8028,-3.8079,-3.8119,-3.8148,-3.8207,-3.8222,-3.8267,-3.8325,-3.8359,-3.8432,-3.8447,-3.8518,-3.8522,-3.85,-3.8502,-3.8534,-3.853,-3.8635,-3.865,-3.8579,-3.858,-3.858,0,-3.7839,-3.7882,-3.7947,-3.798,-3.8011,-3.8063,-3.8099,-3.8132,-3.8168,-3.823,-3.8262,-3.8321,-3.837,-3.8462,-3.85,-3.8556,-3.8561,-3.8594,-3.8569,-3.856,-3.856,-3.8556,-3.856,-3.8597,-3.8598,-3.8598,-3.8599,0,-3.7906,-3.7922,-3.7973,-3.8031,-3.8073,-3.812,-3.8166,-3.8192,-3.8232,-3.8273,-3.8332,-3.837,-3.8446,-3.8504,-3.8563,-3.8594,-3.8603,-3.8607,-3.8618,-3.8609,-3.8594,-3.8602,-3.851,-3.8604,-3.8603,-3.8603,-3.8603,-3.8602,-3.7949,-3.7987,-3.8039,-3.8096,-3.8135,-3.8178,-3.8218,-3.8253,-3.8303,-3.8367,-3.8384,-3.8446,-3.8497,-3.8578,-3.8611,-3.866,-3.8654,-3.867,-3.8673,-3.8676,-3.8676,-3.8589,-3.8671,-3.8671,-3.8671,-3.8671,-3.8671,0,-3.8015,-3.805,-3.8102,-3.8167,-3.8211,-3.8218,-3.827,-3.8306,-3.8361,-3.8408,-3.8456,-3.8525,-3.8582,-3.8626,-3.8685,-3.8715,-3.8721,-3.873,-3.8726,-3.8733,-3.8679,-3.8663,-3.8724,-3.8724,-3.8724,-3.8724,-3.8724,-3.8724,-3.8055,-3.8121,-3.8143,-3.8228,-3.8262,-3.8324,-3.8353,-3.8393,-3.8431,-3.8507,-3.8555,-3.8584,-3.863,-3.8692,-3.8744,-3.8756,-3.8776,-3.8783,-3.8795,-3.8743,-3.8737,-3.8732,-3.8717,-3.8788,-3.8788,-3.8846,-3.8846,-3.8847]},{"header":{"parameterUnit":"m.s-1","parameterCategory":1,"la1":30.2991,"la2":30.254,"lo1":-89.0895,"lo2":-89.0444,"dy":0.0017,"dx":0.0017,"nx":28,"ny":28,"refTime":"2026-01-07T09:00:00:Z","depth":0,"parameterNumber":3,"parameterNumberName":"V-component_of_WINDS"},"data":[0,0,0,0,0,0,0,0,0,0,0,0,0,0,0,0,0,0,0,0,0,0,0,0,0,0,0,0,0,0,0,0,0,0,0,0,0,0,0,0,0,0,0,0,0,0,0,0,0,0,0,0,0,0,0,0,0,0,3.2797,3.2798,0,3.2897,3.2898,3.2899,3.2923,3.2922,3.2922,3.2921,3.3024,3.3027,3.303,0,0,0,0,0,0,0,0,0,0,0,0,0,3.2628,3.2631,3.2797,3.2798,3.2799,3.2897,3.2898,3.29,3.2923,3.2922,3.2922,3.2921,3.3023,3.3027,3.3031,0,0,0,0,0,0,0,0,0,0,0,0,0,3.2712,3.2632,3.2797,3.2823,3.2826,3.2897,3.2898,3.29,3.2923,3.2922,3.2921,3.292,3.3021,3.3026,3.3031,3.3083,0,0,3.3047,3.3049,0,0,0,0,0,0,0,0,3.2707,3.2718,3.2818,3.2821,3.2825,3.2897,3.2877,3.2961,3.2924,3.2886,3.2921,3.292,3.2982,3.299,3.3011,3.3087,3.3092,3.3047,3.305,3.3052,3.3054,0,0,0,0,0,0,0,3.2702,3.2714,3.2836,3.2819,3.2824,3.283,3.2841,3.2893,3.2939,3.289,3.2892,3.2903,3.2984,3.3007,3.3014,3.3093,3.3047,3.3051,3.3054,3.3056,3.322,3.3222,0,0,0,0,0,0,3.2691,3.2709,3.2833,3.2839,3.2762,3.2834,3.2846,3.2875,3.2938,3.2947,3.2904,3.2904,3.2998,3.3008,3.3018,3.3085,3.3052,3.3057,3.306,3.3219,3.3221,3.3222,0,0,0,0,0,0,3.2687,3.2702,3.2829,3.2775,3.2792,3.2838,3.287,3.2877,3.29,3.2949,3.2958,3.2918,3.2998,3.3011,3.3067,3.3089,3.3059,3.3064,3.3218,3.322,3.3221,3.3217,0,0,0,0,0,0,3.2682,3.27,3.272,3.2775,3.2795,3.2876,3.2871,3.288,3.2908,3.2909,3.2965,3.2973,3.2998,3.306,3.3072,3.3095,3.3068,3.3216,3.3218,3.3221,3.3216,3.3219,3.3222,0,0,0,0,0,3.2676,3.2714,3.272,3.2735,3.282,3.2877,3.2889,3.2917,3.291,3.2931,3.2963,3.2971,3.3084,3.3065,3.308,3.3104,3.3215,3.3218,3.3221,3.3215,3.3218,3.3222,0,0,0,0,0,0,3.2659,3.2721,3.2729,3.2786,3.2826,3.2881,3.2908,3.2919,3.2962,3.2961,3.2994,3.3007,3.3062,3.3088,3.3066,3.3159,3.3149,3.3155,3.314,3.3144,3.3147,3.314,3.3072,0,0,0,0,0,3.2662,3.2703,3.2756,3.2801,3.282,3.2861,3.2887,3.2905,3.2948,3.2965,3.3002,3.3043,3.3089,3.3117,3.3161,3.322,3.3234,3.3244,3.3247,3.3249,3.3254,3.329,3.3296,3.3232,3.3232,3.3232,0,0,3.2668,3.2707,3.2731,3.2798,3.2831,3.2875,3.2875,3.292,3.2953,3.2972,3.3029,3.3057,3.3106,3.3164,3.3192,3.3188,3.3275,3.3253,3.3254,3.3258,3.3294,3.33,3.3305,3.3234,3.3234,3.3233,0,0,3.2702,3.2734,3.2777,3.2811,3.2862,3.2889,3.2899,3.2953,3.2973,3.303,3.3047,3.3086,3.3162,3.3198,3.3225,3.3276,3.3286,3.3289,3.3305,3.3339,3.3344,3.3349,3.3369,3.3376,3.3294,3.3294,3.3294,0,3.2703,3.2768,3.2797,3.2843,3.2873,3.2893,3.2938,3.2969,3.3032,3.3053,3.3048,3.3146,3.318,3.3249,3.3261,3.3282,3.3296,3.3283,3.3341,3.3346,3.3351,3.3371,3.3378,3.3294,3.3294,3.3294,3.3294,0,3.2769,3.2814,3.2842,3.2903,3.2936,3.2981,3.3018,3.3048,3.3064,3.3092,3.3152,3.3194,3.3248,3.3265,3.3281,3.3337,3.3334,3.3334,3.3325,3.3357,3.3376,3.3383,3.3294,3.3294,3.3294,3.3294,0,0,3.2793,3.2872,3.2882,3.2911,3.297,3.3006,3.3052,3.3106,3.3133,3.3175,3.3217,3.3282,3.3284,3.3316,3.3335,3.3365,3.3406,3.3363,3.3365,3.3371,3.3473,3.3473,3.3482,3.3413,3.3414,3.3416,3.347,0,3.2836,3.2919,3.2948,3.3018,3.3061,3.3083,3.3124,3.3165,3.3193,3.3234,3.3265,3.3312,3.331,3.333,3.336,3.3394,3.3427,3.3391,3.3453,3.3455,3.3441,3.3491,3.3491,3.354,3.3477,3.3479,3.3479,0,3.2896,3.2942,3.3016,3.3072,3.3091,3.3127,3.318,3.3219,3.3268,3.3286,3.3323,3.3341,3.3392,3.3379,3.3451,3.3426,3.3453,3.3474,3.3477,3.3485,3.347,3.3502,3.3556,3.3564,3.3491,3.349,3.3489,0,3.291,3.2989,3.3045,3.3069,3.3135,3.316,3.3189,3.3236,3.3267,3.3314,3.3335,3.3386,3.3415,3.3455,3.3487,3.3475,3.3557,3.3547,3.3575,3.3575,3.3593,3.3591,3.3653,3.3607,3.3607,3.3607,3.3607,0,3.2955,3.3,3.3052,3.3086,3.3138,3.3171,3.3222,3.3252,3.3294,3.3336,3.3357,3.3396,3.3435,3.348,3.3505,3.3562,3.3574,3.3592,3.3598,3.3591,3.3589,3.361,3.3608,3.3609,3.3608,3.3608,3.3608,0,3.298,3.3015,3.3078,3.3136,3.3152,3.3188,3.3238,3.3273,3.3302,3.3355,3.3369,3.3415,3.3469,3.3505,3.3573,3.359,3.3653,3.3658,3.3637,3.3641,3.3668,3.3666,3.3748,3.3761,3.3704,3.3704,3.3705,0,3.3007,3.3042,3.3105,3.3135,3.3164,3.321,3.3243,3.3278,3.3311,3.337,3.3399,3.3454,3.35,3.3584,3.3625,3.3677,3.3685,3.371,3.3693,3.3686,3.3688,3.3687,3.3691,3.3713,3.3713,3.3714,3.3714,0,3.3053,3.3069,3.3115,3.3169,3.3207,3.3251,3.3294,3.3318,3.336,3.3397,3.3452,3.3488,3.3559,3.3614,3.3671,3.3702,3.3716,3.3719,3.3729,3.3723,3.371,3.372,3.3646,3.3717,3.3717,3.3717,3.3717,3.3716,3.3081,3.3115,3.3165,3.3216,3.3253,3.3294,3.333,3.3365,3.3412,3.3473,3.349,3.3549,3.3598,3.3677,3.3709,3.3755,3.3753,3.3767,3.3771,3.3774,3.3775,3.3701,3.3766,3.3766,3.3766,3.3766,3.3765,0,3.313,3.3163,3.321,3.3272,3.3313,3.3323,3.3372,3.3406,3.3457,3.3502,3.3548,3.3613,3.3667,3.3712,3.3769,3.3798,3.3806,3.3812,3.3811,3.3818,3.3773,3.376,3.3804,3.3804,3.3804,3.3804,3.3804,3.3804,3.316,3.3218,3.3241,3.3319,3.3353,3.341,3.3438,3.3477,3.3513,3.3585,3.3631,3.366,3.3706,3.3766,3.3817,3.3829,3.385,3.3855,3.3868,3.3825,3.3821,3.3817,3.3805,3.3858,3.3858,3.391,3.3911,3.3911]}]]